Weather History for KCEY - February, 2013

Change the Weather History Date:

Thursday, February 7, 2013

  Actual Average (KPAH) Record (KPAH)
Temperature  
Mean Temperature 52 °F 37 °F  
Max Temperature 64 °F 47 °F 66 °F (1999)
Min Temperature 39 °F 28 °F 3 °F (1982)
Degree Days  
Heating Degree Days 14 28  
Month to date heating degree days 200  
Since 1 July heating degree days 2773  
Cooling Degree Days 0 0  
Month to date cooling degree days 0  
Year to date cooling degree days 0  
Growing Degree Days 2 (Base 50)    
Moisture  
Dew Point 41 °F    
Average Humidity 67    
Maximum Humidity 100    
Minimum Humidity 51    
Precipitation  
Precipitation 0.43 in 0.13 in 1.08 in (1961)
Month to date precipitation 0.99  
Year to date precipitation 4.67  
Snow  
Snow 0.00 in 0.10 in 6.00 in (2011)
Month to date snowfall 0.9  
Since 1 July snowfall 6.2  
Snow Depth -    
Sea Level Pressure  
Sea Level Pressure 29.97 in    
Wind  
Wind Speed 6 mph (South)    
Max Wind Speed 14 mph    
Max Gust Speed 22 mph    
Visibility 10 miles    
Events      
T = Trace of Precipitation, MM = Missing Value Source: NWS Daily Summary

Daily Weather History Graph

Daily Weather History Graph

Search for Another Location

Airport or City:

Trip Planner

Search our weather history database for the weather conditions in past years. The results will help you decide how hot, cold, wet, or windy it might be!

Date:

Astronomy

Feb. 07, 2013 Rise Set
Actual Time 6:49 AM CST 5:25 PM CST
Civil Twilight 6:22 AM CST 5:52 PM CST
Nautical Twilight 5:52 AM CST 6:23 PM CST
Astronomical Twilight 5:22 AM CST 6:53 PM CST
Moon 4:26 AM CST (2/7) 2:52 PM CST (2/7)
Length of Visible Light 11h 29m
Length of Day
10h 36m
Waning Crescent, 9% of the Moon is Illuminated
Feb 7
Waning Crescent
Feb 10
New
Feb 17
First Quarter
Feb 25
Full
Mar 4
Last Quarter

Hourly Weather History & Observations

Time (CST) Temp. Windchill Dew Point Humidity Pressure Visibility Wind Dir Wind Speed Gust Speed Precip Events Conditions
12:15 AM 41.0 °F 38.0 °F 30.2 °F 65% 30.10 in 10.0 mi ESE 4.6 mph - N/A   Partly Cloudy
12:35 AM 41.0 °F 37.1 °F 30.2 °F 65% 30.10 in 10.0 mi ESE 5.8 mph - N/A   Clear
12:55 AM 41.0 °F 36.4 °F 30.2 °F 65% 30.10 in 10.0 mi SE 6.9 mph - N/A   Clear
1:15 AM 41.0 °F 36.4 °F 32.0 °F 70% 30.09 in 10.0 mi ESE 6.9 mph - N/A   Clear
1:35 AM 41.0 °F 37.1 °F 32.0 °F 70% 30.08 in 10.0 mi ESE 5.8 mph - N/A   Partly Cloudy
1:55 AM 42.8 °F 39.3 °F 30.2 °F 61% 30.08 in 10.0 mi ESE 5.8 mph - N/A   Partly Cloudy
2:15 AM 41.0 °F 39.0 °F 32.0 °F 70% 30.08 in 10.0 mi ESE 3.5 mph - N/A   Partly Cloudy
2:35 AM 41.0 °F 38.0 °F 30.2 °F 65% 30.08 in 10.0 mi ESE 4.6 mph - N/A   Clear
2:55 AM 41.0 °F 37.1 °F 32.0 °F 70% 30.07 in 10.0 mi ESE 5.8 mph - N/A   Clear
3:15 AM 41.0 °F 38.0 °F 32.0 °F 70% 30.06 in 10.0 mi ESE 4.6 mph - N/A   Clear
3:35 AM 41.0 °F 38.0 °F 32.0 °F 70% 30.05 in 10.0 mi ESE 4.6 mph - N/A   Clear
3:55 AM 41.0 °F 38.0 °F 30.2 °F 65% 30.05 in 10.0 mi ESE 4.6 mph - N/A   Clear
4:15 AM 41.0 °F 37.1 °F 32.0 °F 70% 30.04 in 10.0 mi SE 5.8 mph - N/A   Clear
4:35 AM 41.0 °F 36.4 °F 32.0 °F 70% 30.04 in 10.0 mi SE 6.9 mph - N/A   Clear
4:55 AM 41.0 °F 36.4 °F 32.0 °F 70% 30.04 in 10.0 mi SE 6.9 mph - N/A   Clear
5:15 AM 41.0 °F 37.1 °F 32.0 °F 70% 30.04 in 10.0 mi ENE 5.8 mph - N/A   Partly Cloudy
5:35 AM 39.2 °F 34.2 °F 32.0 °F 75% 30.04 in 10.0 mi East 6.9 mph - N/A   Mostly Cloudy
5:55 AM 41.0 °F 37.1 °F 30.2 °F 65% 30.03 in 10.0 mi ESE 5.8 mph - N/A   Overcast
6:15 AM 39.2 °F 37.0 °F 32.0 °F 75% 30.03 in 10.0 mi ESE 3.5 mph - N/A   Mostly Cloudy
6:35 AM 41.0 °F 38.0 °F 32.0 °F 70% 30.02 in 10.0 mi SE 4.6 mph - N/A   Mostly Cloudy
6:55 AM 41.0 °F 36.4 °F 32.0 °F 70% 30.02 in 10.0 mi SE 6.9 mph - N/A   Scattered Clouds
7:15 AM 39.2 °F 37.0 °F 32.0 °F 75% 30.02 in 10.0 mi SSE 3.5 mph - N/A   Scattered Clouds
8:15 AM 46.4 °F - 32.0 °F 57% 30.03 in 10.0 mi Calm Calm - N/A   Clear
8:35 AM 46.4 °F 45.2 °F 32.0 °F 57% 30.02 in 10.0 mi SE 3.5 mph - N/A   Clear
8:55 AM 48.2 °F - 33.8 °F 58% 30.02 in 10.0 mi Calm Calm - N/A   Clear
9:15 AM 53.6 °F - 37.4 °F 54% 30.02 in 10.0 mi SSE 4.6 mph - N/A   Partly Cloudy
9:35 AM 55.4 °F - 39.2 °F 54% 30.01 in 10.0 mi South 8.1 mph - N/A   Partly Cloudy
9:55 AM 57.2 °F - 39.2 °F 51% 30.01 in 10.0 mi South 6.9 mph - N/A   Mostly Cloudy
10:15 AM 57.2 °F - 41.0 °F 55% 30.01 in 10.0 mi South 5.8 mph - N/A   Overcast
10:35 AM 59.0 °F - 41.0 °F 51% 30.00 in 10.0 mi SSW 6.9 mph - N/A   Overcast
10:55 AM 59.0 °F - 42.8 °F 55% 30.00 in 10.0 mi South 9.2 mph - N/A   Mostly Cloudy
11:15 AM 60.8 °F - 44.6 °F 55% 29.99 in 10.0 mi South 11.5 mph - N/A   Partly Cloudy
11:35 AM 62.6 °F - 44.6 °F 52% 29.97 in 10.0 mi South 8.1 mph 16.1 mph N/A   Partly Cloudy
11:55 AM 60.8 °F - 44.6 °F 55% 29.97 in 10.0 mi South 10.4 mph - N/A   Mostly Cloudy
12:15 PM 60.8 °F - 44.6 °F 55% 29.96 in 10.0 mi SSW 6.9 mph - N/A   Overcast
12:35 PM 62.6 °F - 46.4 °F 55% 29.95 in 10.0 mi South 8.1 mph - N/A   Overcast
12:55 PM 64.4 °F - 46.4 °F 52% 29.94 in 10.0 mi SW 9.2 mph - N/A   Scattered Clouds
1:15 PM 64.4 °F - 46.4 °F 52% 29.94 in 10.0 mi SSW 11.5 mph 16.1 mph N/A   Mostly Cloudy
1:35 PM 62.6 °F - 46.4 °F 55% 29.93 in 10.0 mi SW 9.2 mph - N/A   Mostly Cloudy
1:55 PM 64.4 °F - 48.2 °F 56% 29.92 in 10.0 mi SW 9.2 mph - N/A   Scattered Clouds
2:15 PM 64.4 °F - 46.4 °F 52% 29.92 in 10.0 mi West 5.8 mph - N/A   Scattered Clouds
2:35 PM 64.4 °F - 46.4 °F 52% 29.91 in 10.0 mi WSW 5.8 mph - N/A   Mostly Cloudy
2:55 PM 64.4 °F - 46.4 °F 52% 29.90 in 10.0 mi WSW 5.8 mph - N/A   Mostly Cloudy
3:15 PM 64.4 °F - 46.4 °F 52% 29.90 in 10.0 mi WSW 4.6 mph - N/A   Mostly Cloudy
3:35 PM 64.4 °F - 48.2 °F 56% 29.89 in 10.0 mi WSW 6.9 mph - N/A   Scattered Clouds
3:55 PM 64.4 °F - 48.2 °F 56% 29.89 in 10.0 mi West 4.6 mph - N/A   Clear
4:15 PM 62.6 °F - 48.2 °F 59% 29.88 in 10.0 mi SW 3.5 mph - N/A   Clear
4:35 PM 62.6 °F - 48.2 °F 59% 29.89 in 10.0 mi Calm Calm - N/A   Scattered Clouds
4:55 PM 60.8 °F - 48.2 °F 63% 29.88 in 10.0 mi Calm Calm - N/A   Mostly Cloudy
5:15 PM 59.0 °F - 48.2 °F 67% 29.88 in 10.0 mi WSW 4.6 mph - N/A   Overcast
5:35 PM 57.2 °F - 46.4 °F 67% 29.89 in 10.0 mi WSW 4.6 mph - N/A   Mostly Cloudy
5:55 PM 57.2 °F - 48.2 °F 72% 29.89 in 10.0 mi WSW 4.6 mph - N/A   Overcast
6:15 PM 57.2 °F - 48.2 °F 72% 29.90 in 10.0 mi West 3.5 mph - N/A   Overcast
6:35 PM 57.2 °F - 48.2 °F 72% 29.89 in 10.0 mi WSW 4.6 mph - N/A   Overcast
6:55 PM 57.2 °F - 48.2 °F 72% 29.89 in 10.0 mi WSW 5.8 mph - N/A   Overcast
7:15 PM 57.2 °F - 48.2 °F 72% 29.89 in 10.0 mi WSW 5.8 mph - N/A   Overcast
7:35 PM 57.2 °F - 48.2 °F 72% 29.89 in 10.0 mi WSW 6.9 mph - N/A   Overcast
7:55 PM 57.2 °F - 48.2 °F 72% 29.89 in 10.0 mi WSW 4.6 mph - N/A   Overcast
8:15 PM 55.4 °F - 48.2 °F 77% 29.89 in 10.0 mi WSW 4.6 mph - N/A   Overcast
8:35 PM 55.4 °F - 48.2 °F 77% 29.89 in 10.0 mi SW 4.6 mph - N/A   Overcast
8:55 PM 55.4 °F - 48.2 °F 77% 29.89 in 10.0 mi SW 5.8 mph - N/A   Overcast
9:15 PM 55.4 °F - 50.0 °F 82% 29.89 in 8.0 mi SW 5.8 mph - N/A   Overcast
9:35 PM 55.4 °F - 50.0 °F 82% 29.88 in 10.0 mi SW 3.5 mph - N/A   Overcast
9:55 PM 55.4 °F - 50.0 °F 82% 29.89 in 9.0 mi SW 4.6 mph - N/A   Overcast
10:15 PM 55.4 °F - 51.8 °F 88% 29.89 in 5.0 mi WNW 4.6 mph - 0.02 in   Overcast
10:55 PM 53.6 °F - 51.8 °F 94% 29.89 in 3.0 mi Calm Calm - 0.08 in   Overcast
11:15 PM 53.6 °F - 53.6 °F 100% 29.89 in 1.2 mi Calm Calm - 0.17 in   Overcast
11:35 PM 53.6 °F - 53.6 °F 100% 29.91 in 3.0 mi NNW 10.4 mph - 0.31 in   Overcast
11:55 PM 50.0 °F - 50.0 °F 100% 29.92 in 4.0 mi NNW 13.8 mph 21.9 mph 0.35 in   Overcast